Location: Brantford
(43.1330°N, 80.2670°W)
Time: 07:06:18
(UTC-05:00)

Hubble Space Telescope - Visible Passes

Search period start: 28 November 2020 00:00
Search period end: 08 December 2020 00:00
Orbit: 536 x 540 km, 28.5° (Epoch: 27 November)

Date Brightness Start Highest point End Pass type
(mag) Time Alt. Az. Time Alt. Az. Time Alt. Az.
04 Dec 3.5 19:17:55 10° S 19:17:55 10° S 19:17:55 10° S visible
05 Dec 3.4 19:06:57 10° S 19:07:36 10° S 19:07:47 10° S visible
06 Dec 3.5 18:56:18 10° S 18:56:39 10° S 18:57:00 10° S visible
